| time (UTC) | temp F | wind direction | speed knots | gust knots | rain 1hr in | rain 24hr in | rain mn in | humidity % | barometer mb |
| 20260507234614 | 60 | 112 | 0.0 | 0.0 | 0.00 | 0.00 | 0.00 | 76 | 1014.2 |
| 20260507234114 | 60 | 112 | 0.0 | 0.0 | 0.00 | 0.00 | 0.00 | 76 | 1014.1 |
| 20260507233614 | 60 | 112 | 0.0 | 0.0 | 0.00 | 0.00 | 0.00 | 76 | 1014.1 |
| 20260507233114 | 60 | 112 | 0.0 | 0.0 | 0.00 | 0.00 | 0.00 | 76 | 1014.1 |
| 20260507232614 | 61 | 112 | 0.0 | 0.0 | 0.00 | 0.00 | 0.00 | 76 | 1014.1 |
| 20260507232113 | 61 | 112 | 0.0 | 0.0 | 0.00 | 0.00 | 0.00 | 76 | 1014.1 |
| 20260507231613 | 61 | 112 | 0.0 | 0.0 | 0.00 | 0.00 | 0.00 | 76 | 1014.2 |
| 20260507231112 | 61 | 112 | 0.0 | 0.0 | 0.00 | 0.00 | 0.00 | 76 | 1014.2 |
| 20260507230612 | 61 | 112 | 0.0 | 0.0 | 0.00 | 0.00 | 0.00 | 76 | 1014.3 |
| 20260507230112 | 61 | 112 | 0.0 | 0.0 | 0.00 | 0.00 | 0.00 | 76 | 1014.4 |
| 20260507225612 | 61 | 112 | 0.0 | 0.0 | 0.00 | 0.00 | 0.00 | 76 | 1014.3 |
| 20260507225112 | 61 | 112 | 0.0 | 0.0 | 0.00 | 0.00 | 0.00 | 76 | 1014.3 |
| 20260507224611 | 61 | 112 | 0.0 | 0.0 | 0.00 | 0.00 | 0.00 | 76 | 1014.3 |
| 20260507224111 | 61 | 112 | 0.0 | 0.0 | 0.00 | 0.00 | 0.00 | 76 | 1014.2 |
| 20260507223611 | 61 | 112 | 0.0 | 0.0 | 0.00 | 0.00 | 0.00 | 76 | 1014.2 |
| 20260507223111 | 61 | 112 | 0.0 | 0.0 | 0.00 | 0.00 | 0.00 | 76 | 1014.1 |
| 20260507222611 | 61 | 112 | 0.0 | 0.0 | 0.00 | 0.00 | 0.00 | 76 | 1014.1 |
| 20260507222110 | 61 | 112 | 0.0 | 0.0 | 0.00 | 0.00 | 0.00 | 76 | 1014.1 |
| 20260507221610 | 61 | 112 | 0.0 | 0.0 | 0.00 | 0.00 | 0.00 | 76 | 1014.0 |
| 20260507220610 | 61 | 113 | 0.0 | 0.0 | 0.00 | 0.00 | 0.00 | 76 | 1014.0 |
| 20260507220109 | 62 | 114 | 0.0 | 0.0 | 0.00 | 0.00 | 0.00 | 75 | 1014.0 |
| 20260507215609 | 62 | 114 | 0.0 | 0.0 | 0.00 | 0.00 | 0.00 | 75 | 1013.9 |
| 20260507215109 | 62 | 106 | 0.0 | 0.0 | 0.00 | 0.00 | 0.00 | 75 | 1014.0 |
| 20260507214609 | 62 | 104 | 0.0 | 0.0 | 0.00 | 0.00 | 0.00 | 75 | 1013.9 |
| 20260507214108 | 62 | 119 | 0.0 | 0.0 | 0.00 | 0.00 | 0.00 | 75 | 1014.0 |
| 20260507213608 | 63 | 122 | 0.0 | 0.0 | 0.00 | 0.00 | 0.00 | 75 | 1014.0 |
| 20260507213108 | 63 | 122 | 0.0 | 0.0 | 0.00 | 0.00 | 0.00 | 75 | 1013.9 |
| 20260507212608 | 63 | 126 | 0.0 | 0.0 | 0.00 | 0.00 | 0.00 | 74 | 1013.9 |
| 20260507212107 | 63 | 127 | 0.0 | 0.0 | 0.00 | 0.00 | 0.00 | 74 | 1013.9 |
| 20260507211607 | 64 | 120 | 0.0 | 0.0 | 0.00 | 0.00 | 0.00 | 74 | 1013.9 |
| 20260507211107 | 64 | 93 | 0.0 | 0.0 | 0.00 | 0.00 | 0.00 | 74 | 1013.8 |
| 20260507210607 | 64 | 93 | 0.0 | 0.0 | 0.00 | 0.00 | 0.00 | 74 | 1013.9 |
| 20260507210107 | 64 | 91 | 0.0 | 0.0 | 0.00 | 0.00 | 0.00 | 73 | 1013.9 |
| 20260507205606 | 64 | 91 | 0.0 | 0.0 | 0.00 | 0.00 | 0.00 | 73 | 1013.9 |
| 20260507205106 | 64 | 91 | 0.0 | 0.0 | 0.00 | 0.00 | 0.00 | 73 | 1013.9 |
| 20260507204606 | 65 | 91 | 0.0 | 0.0 | 0.00 | 0.00 | 0.00 | 72 | 1014.0 |
| 20260507204106 | 65 | 91 | 0.0 | 0.0 | 0.00 | 0.00 | 0.00 | 72 | 1014.1 |
| 20260507203605 | 65 | 91 | 0.0 | 0.0 | 0.00 | 0.00 | 0.00 | 72 | 1014.1 |
| 20260507203105 | 65 | 91 | 0.0 | 0.0 | 0.00 | 0.00 | 0.00 | 72 | 1014.1 |
| 20260507202604 | 65 | 91 | 0.0 | 0.0 | 0.00 | 0.00 | 0.00 | 72 | 1014.2 |
| 20260507202104 | 65 | 91 | 0.0 | 0.0 | 0.00 | 0.00 | 0.00 | 72 | 1014.2 |
| 20260507201604 | 65 | 91 | 0.0 | 0.0 | 0.00 | 0.00 | 0.00 | 72 | 1014.1 |
| 20260507201103 | 65 | 89 | 0.0 | 0.0 | 0.00 | 0.00 | 0.00 | 71 | 1014.1 |
| 20260507200603 | 65 | 91 | 0.0 | 0.0 | 0.00 | 0.00 | 0.00 | 71 | 1014.1 |
| 20260507200103 | 65 | 100 | 0.0 | 0.0 | 0.00 | 0.00 | 0.00 | 71 | 1014.2 |
| 20260507195601 | 65 | 104 | 0.0 | 0.0 | 0.00 | 0.00 | 0.00 | 71 | 1014.1 |
| 20260507195217 | 65 | 81 | 1.7 | 0.0 | 0.00 | 0.00 | 0.00 | 71 | 1014.1 |
| 20260507195101 | 65 | 81 | 1.7 | 0.0 | 0.00 | 0.00 | 0.00 | 71 | 1014.1 |
| 20260507194601 | 66 | 89 | 0.0 | 0.0 | 0.00 | 0.00 | 0.00 | 71 | 1014.1 |
| 20260507194059 | 66 | 102 | 0.0 | 0.0 | 0.00 | 0.00 | 0.00 | 71 | 1014.1 |
| 20260507193558 | 66 | 72 | 0.0 | 0.0 | 0.00 | 0.00 | 0.00 | 70 | 1014.0 |
| 20260507192558 | 66 | 101 | 0.0 | 0.0 | 0.00 | 0.00 | 0.00 | 70 | 1013.9 |
| 20260507192137 | 66 | 102 | 0.0 | 0.0 | 0.00 | 0.00 | 0.00 | 70 | 1013.9 |
| 20260507192056 | 66 | 102 | 0.0 | 0.0 | 0.00 | 0.00 | 0.00 | 70 | 1013.9 |
| 20260507191556 | 66 | 102 | 0.0 | 0.0 | 0.00 | 0.00 | 0.00 | 70 | 1013.9 |
| 20260507191155 | 66 | 102 | 0.0 | 0.0 | 0.00 | 0.00 | 0.00 | 70 | 1013.9 |
| 20260507191056 | 66 | 102 | 0.0 | 0.0 | 0.00 | 0.00 | 0.00 | 70 | 1013.9 |
| 20260507190702 | 66 | 102 | 0.0 | 0.0 | 0.00 | 0.00 | 0.00 | 70 | 1013.8 |
| 20260507190556 | 66 | 102 | 0.0 | 0.0 | 0.00 | 0.00 | 0.00 | 70 | 1013.8 |
| 20260507190055 | 66 | 113 | 0.0 | 0.0 | 0.00 | 0.00 | 0.00 | 69 | 1013.7 |
| 20260507185554 | 66 | 105 | 0.0 | 0.0 | 0.00 | 0.00 | 0.00 | 69 | 1013.8 |
| 20260507185054 | 66 | 103 | 0.0 | 0.0 | 0.00 | 0.00 | 0.00 | 69 | 1013.6 |
| 20260507184554 | 66 | 111 | 0.9 | 0.0 | 0.00 | 0.00 | 0.00 | 69 | 1013.6 |
| 20260507184054 | 66 | 112 | 1.7 | 0.0 | 0.00 | 0.00 | 0.00 | 69 | 1013.6 |
| 20260507183553 | 66 | 106 | 0.0 | 0.0 | 0.00 | 0.00 | 0.00 | 69 | 1013.5 |
| 20260507183053 | 67 | 106 | 0.0 | 0.0 | 0.00 | 0.00 | 0.00 | 69 | 1013.6 |
| 20260507182552 | 67 | 106 | 0.0 | 0.0 | 0.00 | 0.00 | 0.00 | 69 | 1013.6 |
| 20260507182052 | 67 | 118 | 0.0 | 0.0 | 0.00 | 0.00 | 0.00 | 69 | 1013.5 |
| 20260507181552 | 67 | 106 | 2.6 | 0.0 | 0.00 | 0.00 | 0.00 | 69 | 1013.4 |
| 20260507181053 | 67 | 102 | 0.0 | 0.0 | 0.00 | 0.00 | 0.00 | 69 | 1013.3 |
| 20260507180648 | 67 | 114 | 6.1 | 0.0 | 0.00 | 0.00 | 0.00 | 70 | 1013.2 |
| 20260507180551 | 67 | 114 | 6.1 | 0.0 | 0.00 | 0.00 | 0.00 | 70 | 1013.2 |
| 20260507180404 | 67 | 122 | 8.7 | 0.0 | 0.00 | 0.00 | 0.00 | 70 | 1013.2 |
| 20260507180129 | 67 | 122 | 8.7 | 0.0 | 0.00 | 0.00 | 0.00 | 70 | 1013.2 |
| 20260507180051 | 67 | 122 | 8.7 | 0.0 | 0.00 | 0.00 | 0.00 | 70 | 1013.2 |
| 20260507175550 | 67 | 96 | 7.8 | 0.0 | 0.00 | 0.00 | 0.00 | 71 | 1013.1 |
| 20260507175147 | 67 | 110 | 6.1 | 0.0 | 0.00 | 0.00 | 0.00 | 71 | 1013.1 |
| 20260507175050 | 67 | 110 | 6.1 | 0.0 | 0.00 | 0.00 | 0.00 | 71 | 1013.1 |
| 20260507174550 | 67 | 104 | 3.5 | 0.0 | 0.00 | 0.00 | 0.00 | 71 | 1013.0 |
| 20260507174050 | 67 | 131 | 6.1 | 0.0 | 0.00 | 0.00 | 0.00 | 72 | 1012.8 |
| 20260507173550 | 67 | 113 | 3.5 | 0.0 | 0.00 | 0.00 | 0.00 | 72 | 1012.8 |
| 20260507173049 | 67 | 85 | 11.3 | 0.0 | 0.00 | 0.00 | 0.00 | 72 | 1012.8 |
| 20260507172549 | 67 | 110 | 8.7 | 0.0 | 0.00 | 0.00 | 0.00 | 73 | 1012.9 |
| 20260507172049 | 67 | 70 | 7.8 | 0.0 | 0.00 | 0.00 | 0.00 | 74 | 1012.9 |
| 20260507171549 | 67 | 110 | 4.3 | 0.0 | 0.00 | 0.00 | 0.00 | 74 | 1012.9 |
| 20260507171120 | 67 | 123 | 7.8 | 0.0 | 0.00 | 0.00 | 0.00 | 74 | 1012.9 |
| 20260507171048 | 67 | 123 | 7.8 | 0.0 | 0.00 | 0.00 | 0.00 | 74 | 1012.9 |
| 20260507170548 | 67 | 64 | 7.8 | 0.0 | 0.00 | 0.00 | 0.00 | 74 | 1012.9 |
| 20260507170048 | 67 | 106 | 9.6 | 0.0 | 0.00 | 0.00 | 0.00 | 73 | 1012.9 |
| 20260507165548 | 68 | 102 | 10.4 | 0.0 | 0.00 | 0.00 | 0.00 | 72 | 1012.9 |
| 20260507164547 | 68 | 96 | 2.6 | 0.0 | 0.00 | 0.00 | 0.00 | 70 | 1012.9 |
| 20260507164047 | 68 | 75 | 8.7 | 0.0 | 0.00 | 0.00 | 0.00 | 69 | 1012.9 |
| 20260507163547 | 69 | 67 | 8.7 | 0.0 | 0.00 | 0.00 | 0.00 | 67 | 1012.8 |
| 20260507163047 | 69 | 95 | 6.1 | 0.0 | 0.00 | 0.00 | 0.00 | 64 | 1012.8 |
| 20260507162546 | 69 | 77 | 2.6 | 0.0 | 0.00 | 0.00 | 0.00 | 62 | 1012.9 |
| 20260507162046 | 69 | 56 | 3.5 | 0.0 | 0.00 | 0.00 | 0.00 | 59 | 1012.9 |
| 20260507161546 | 69 | 75 | 3.5 | 0.0 | 0.00 | 0.00 | 0.00 | 57 | 1012.9 |
| 20260507161046 | 69 | 46 | 6.1 | 0.0 | 0.00 | 0.00 | 0.00 | 59 | 1012.9 |
| 20260507160545 | 68 | 108 | 0.9 | 0.0 | 0.00 | 0.00 | 0.00 | 59 | 1013.0 |
| 20260507160045 | 68 | 42 | 7.8 | 0.0 | 0.00 | 0.00 | 0.00 | 58 | 1013.0 |
| 20260507155545 | 68 | 106 | 6.1 | 0.0 | 0.00 | 0.00 | 0.00 | 59 | 1013.1 |
| 20260507155045 | 68 | 89 | 6.1 | 0.0 | 0.00 | 0.00 | 0.00 | 60 | 1013.1 |
| 20260507154545 | 68 | 46 | 8.7 | 0.0 | 0.00 | 0.00 | 0.00 | 60 | 1013.1 |
| 20260507154044 | 68 | 36 | 4.3 | 0.0 | 0.00 | 0.00 | 0.00 | 59 | 1013.1 |
| 20260507153544 | 68 | 56 | 7.0 | 0.0 | 0.00 | 0.00 | 0.00 | 56 | 1013.1 |
| 20260507153044 | 69 | 34 | 7.0 | 0.0 | 0.00 | 0.00 | 0.00 | 55 | 1013.1 |
| 20260507152544 | 69 | 38 | 8.7 | 0.0 | 0.00 | 0.00 | 0.00 | 56 | 1013.2 |
| 20260507152043 | 69 | 108 | 4.3 | 0.0 | 0.00 | 0.00 | 0.00 | 58 | 1013.1 |
| 20260507151543 | 69 | 61 | 1.7 | 0.0 | 0.00 | 0.00 | 0.00 | 57 | 1013.1 |
| 20260507151043 | 69 | 70 | 8.7 | 0.0 | 0.00 | 0.00 | 0.00 | 57 | 1013.1 |
| 20260507150543 | 68 | 31 | 6.1 | 0.0 | 0.00 | 0.00 | 0.00 | 56 | 1013.1 |
| 20260507150128 | 67 | 62 | 4.3 | 0.0 | 0.00 | 0.00 | 0.00 | 55 | 1013.1 |
| 20260507150043 | 67 | 62 | 4.3 | 0.0 | 0.00 | 0.00 | 0.00 | 55 | 1013.1 |
| 20260507145542 | 68 | 43 | 6.1 | 0.0 | 0.00 | 0.00 | 0.00 | 62 | 1013.1 |
| 20260507145042 | 67 | 16 | 7.8 | 0.0 | 0.00 | 0.00 | 0.00 | 61 | 1013.1 |
| 20260507144542 | 67 | 87 | 1.7 | 0.0 | 0.00 | 0.00 | 0.00 | 63 | 1013.2 |
| 20260507144041 | 68 | 46 | 7.8 | 0.0 | 0.00 | 0.00 | 0.00 | 62 | 1013.2 |
| 20260507143541 | 69 | 34 | 7.0 | 0.0 | 0.00 | 0.00 | 0.00 | 62 | 1013.2 |
| 20260507143041 | 68 | 51 | 2.6 | 0.0 | 0.00 | 0.00 | 0.00 | 61 | 1013.2 |
| 20260507142541 | 68 | 35 | 7.0 | 0.0 | 0.00 | 0.00 | 0.00 | 61 | 1013.2 |
| 20260507142041 | 68 | 42 | 0.0 | 0.0 | 0.00 | 0.00 | 0.00 | 60 | 1013.2 |
| 20260507141540 | 68 | 41 | 7.0 | 0.0 | 0.00 | 0.00 | 0.00 | 61 | 1013.3 |
| 20260507140537 | 68 | 68 | 4.3 | 0.0 | 0.00 | 0.00 | 0.00 | 59 | 1013.3 |
| 20260507140037 | 68 | 56 | 7.8 | 0.0 | 0.00 | 0.00 | 0.00 | 61 | 1013.3 |
| 20260507135537 | 67 | 40 | 1.7 | 0.0 | 0.00 | 0.00 | 0.00 | 61 | 1013.3 |
| 20260507135036 | 67 | 25 | 6.1 | 0.0 | 0.00 | 0.00 | 0.00 | 60 | 1013.4 |
| 20260507134536 | 68 | 43 | 7.0 | 0.0 | 0.00 | 0.00 | 0.00 | 58 | 1013.4 |
| 20260507134036 | 68 | 41 | 5.2 | 0.0 | 0.00 | 0.00 | 0.00 | 58 | 1013.4 |
| 20260507133536 | 68 | 354 | 7.0 | 0.0 | 0.00 | 0.00 | 0.00 | 57 | 1013.3 |
| 20260507133036 | 68 | 33 | 8.7 | 0.0 | 0.00 | 0.00 | 0.00 | 56 | 1013.3 |
| 20260507132535 | 67 | 359 | 7.8 | 0.0 | 0.00 | 0.00 | 0.00 | 57 | 1013.3 |
| 20260507132035 | 68 | 4 | 7.0 | 0.0 | 0.00 | 0.00 | 0.00 | 59 | 1013.4 |
| 20260507131535 | 68 | 37 | 8.7 | 0.0 | 0.00 | 0.00 | 0.00 | 57 | 1013.4 |
| 20260507131035 | 68 | 26 | 1.7 | 0.0 | 0.00 | 0.00 | 0.00 | 59 | 1013.3 |
| 20260507130534 | 68 | 35 | 4.3 | 0.0 | 0.00 | 0.00 | 0.00 | 59 | 1013.3 |
| 20260507130034 | 68 | 340 | 4.3 | 0.0 | 0.00 | 0.00 | 0.00 | 61 | 1013.3 |
| 20260507125533 | 67 | 18 | 7.8 | 0.0 | 0.00 | 0.00 | 0.00 | 60 | 1013.2 |
| 20260507125032 | 67 | 44 | 6.1 | 0.0 | 0.00 | 0.00 | 0.00 | 59 | 1013.3 |
| 20260507124532 | 67 | 39 | 7.8 | 0.0 | 0.00 | 0.00 | 0.00 | 60 | 1013.4 |
| 20260507124032 | 68 | 21 | 11.3 | 0.0 | 0.00 | 0.00 | 0.00 | 59 | 1013.3 |
| 20260507123823 | 68 | 39 | 9.6 | 0.0 | 0.00 | 0.00 | 0.00 | 59 | 1013.4 |
| 20260507123532 | 68 | 39 | 9.6 | 0.0 | 0.00 | 0.00 | 0.00 | 59 | 1013.4 |
| 20260507123032 | 67 | 354 | 8.7 | 0.0 | 0.00 | 0.00 | 0.00 | 59 | 1013.4 |
| 20260507122531 | 67 | 14 | 9.6 | 0.0 | 0.00 | 0.00 | 0.00 | 57 | 1013.4 |
| 20260507122031 | 67 | 27 | 7.8 | 0.0 | 0.00 | 0.00 | 0.00 | 53 | 1013.4 |
| 20260507121531 | 68 | 8 | 8.7 | 0.0 | 0.00 | 0.00 | 0.00 | 55 | 1013.4 |
| 20260507121031 | 68 | 4 | 6.1 | 0.0 | 0.00 | 0.00 | 0.00 | 52 | 1013.5 |
| 20260507120530 | 68 | 342 | 8.7 | 0.0 | 0.00 | 0.00 | 0.00 | 53 | 1013.5 |
| 20260507120030 | 68 | 11 | 7.8 | 0.0 | 0.00 | 0.00 | 0.00 | 54 | 1013.5 |
| 20260507115530 | 68 | 48 | 3.5 | 0.0 | 0.00 | 0.00 | 0.00 | 56 | 1013.5 |
| 20260507115030 | 67 | 8 | 4.3 | 0.0 | 0.00 | 0.00 | 0.00 | 58 | 1013.5 |
| 20260507114529 | 68 | 348 | 7.0 | 0.0 | 0.00 | 0.00 | 0.00 | 57 | 1013.5 |
| 20260507114029 | 68 | 35 | 7.0 | 0.0 | 0.00 | 0.00 | 0.00 | 53 | 1013.6 |
| 20260507113529 | 68 | 58 | 7.0 | 0.0 | 0.00 | 0.00 | 0.00 | 56 | 1013.6 |
| 20260507113029 | 68 | 43 | 6.1 | 0.0 | 0.00 | 0.00 | 0.00 | 57 | 1013.6 |
| 20260507112528 | 68 | 39 | 4.3 | 0.0 | 0.00 | 0.00 | 0.00 | 57 | 1013.5 |
| 20260507112028 | 67 | 25 | 5.2 | 0.0 | 0.00 | 0.00 | 0.00 | 60 | 1013.6 |
| 20260507111528 | 67 | 21 | 6.1 | 0.0 | 0.00 | 0.00 | 0.00 | 60 | 1013.7 |
| 20260507111107 | 67 | 347 | 3.5 | 0.0 | 0.00 | 0.00 | 0.00 | 58 | 1013.7 |
| 20260507111028 | 67 | 347 | 3.5 | 0.0 | 0.00 | 0.00 | 0.00 | 58 | 1013.7 |
| 20260507110528 | 68 | 25 | 9.6 | 0.0 | 0.00 | 0.00 | 0.00 | 56 | 1013.7 |
| 20260507110027 | 68 | 4 | 3.5 | 0.0 | 0.00 | 0.00 | 0.00 | 55 | 1013.7 |
| 20260507105527 | 68 | 348 | 3.5 | 0.0 | 0.00 | 0.00 | 0.00 | 57 | 1013.8 |
| 20260507105111 | 68 | 13 | 0.0 | 0.0 | 0.00 | 0.00 | 0.00 | 60 | 1013.7 |
| 20260507105027 | 68 | 13 | 0.0 | 0.0 | 0.00 | 0.00 | 0.00 | 60 | 1013.7 |
| 20260507104527 | 68 | 333 | 7.0 | 0.0 | 0.00 | 0.00 | 0.00 | 60 | 1013.7 |
| 20260507104026 | 68 | 316 | 9.6 | 0.0 | 0.00 | 0.00 | 0.00 | 56 | 1013.7 |
| 20260507103526 | 69 | 52 | 2.6 | 0.0 | 0.00 | 0.00 | 0.00 | 57 | 1013.7 |
| 20260507103026 | 69 | 341 | 4.3 | 0.0 | 0.00 | 0.00 | 0.00 | 57 | 1013.7 |
| 20260507102526 | 69 | 316 | 5.2 | 0.0 | 0.00 | 0.00 | 0.00 | 55 | 1013.7 |
| 20260507102025 | 70 | 349 | 7.0 | 0.0 | 0.00 | 0.00 | 0.00 | 54 | 1013.7 |
| 20260507101525 | 70 | 354 | 1.7 | 0.0 | 0.00 | 0.00 | 0.00 | 53 | 1013.7 |
| 20260507101025 | 70 | 338 | 3.5 | 0.0 | 0.00 | 0.00 | 0.00 | 53 | 1013.7 |
| 20260507100525 | 70 | 343 | 6.1 | 0.0 | 0.00 | 0.00 | 0.00 | 52 | 1013.8 |
| 20260507100025 | 69 | 27 | 4.3 | 0.0 | 0.00 | 0.00 | 0.00 | 52 | 1013.8 |
| 20260507095524 | 70 | 31 | 2.6 | 0.0 | 0.00 | 0.00 | 0.00 | 53 | 1013.8 |
| 20260507095024 | 69 | 324 | 7.8 | 0.0 | 0.00 | 0.00 | 0.00 | 55 | 1013.8 |
| 20260507094524 | 69 | 328 | 2.6 | 0.0 | 0.00 | 0.00 | 0.00 | 55 | 1013.8 |
| 20260507094024 | 69 | 342 | 5.2 | 0.0 | 0.00 | 0.00 | 0.00 | 54 | 1013.7 |
| 20260507093523 | 69 | 344 | 0.0 | 0.0 | 0.00 | 0.00 | 0.00 | 54 | 1013.9 |
| 20260507093055 | 69 | 332 | 4.3 | 0.0 | 0.00 | 0.00 | 0.00 | 54 | 1013.7 |
| 20260507093023 | 69 | 332 | 4.3 | 0.0 | 0.00 | 0.00 | 0.00 | 54 | 1013.7 |
| 20260507092523 | 69 | 308 | 4.3 | 0.0 | 0.00 | 0.00 | 0.00 | 55 | 1013.7 |
| 20260507092023 | 69 | 317 | 0.0 | 0.0 | 0.00 | 0.00 | 0.00 | 56 | 1013.7 |
| 20260507091522 | 69 | 321 | 4.3 | 0.0 | 0.00 | 0.00 | 0.00 | 58 | 1013.7 |
| 20260507091022 | 68 | 16 | 0.0 | 0.0 | 0.00 | 0.00 | 0.00 | 59 | 1013.7 |
| 20260507090522 | 68 | 354 | 1.7 | 0.0 | 0.00 | 0.00 | 0.00 | 59 | 1013.7 |
| 20260507090022 | 68 | 4 | 0.0 | 0.0 | 0.00 | 0.00 | 0.00 | 59 | 1013.7 |
| 20260507085522 | 67 | 354 | 2.6 | 0.0 | 0.00 | 0.00 | 0.00 | 60 | 1013.7 |
| 20260507085021 | 67 | 359 | 4.3 | 0.0 | 0.00 | 0.00 | 0.00 | 59 | 1013.7 |
| 20260507084521 | 67 | 359 | 8.7 | 0.0 | 0.00 | 0.00 | 0.00 | 61 | 1013.6 |
| 20260507084021 | 68 | 354 | 6.1 | 0.0 | 0.00 | 0.00 | 0.00 | 63 | 1013.6 |
| 20260507083521 | 68 | 354 | 1.7 | 0.0 | 0.00 | 0.00 | 0.00 | 63 | 1013.5 |
| 20260507083020 | 68 | 34 | 7.0 | 0.0 | 0.00 | 0.00 | 0.00 | 63 | 1013.5 |
| 20260507082520 | 69 | 317 | 3.5 | 0.0 | 0.00 | 0.00 | 0.00 | 64 | 1013.4 |
| 20260507082020 | 69 | 9 | 0.0 | 0.0 | 0.00 | 0.00 | 0.00 | 65 | 1013.3 |
| 20260507081519 | 69 | 331 | 0.0 | 0.0 | 0.00 | 0.00 | 0.00 | 64 | 1013.2 |
| 20260507081018 | 70 | 319 | 7.8 | 0.0 | 0.00 | 0.00 | 0.00 | 59 | 1013.2 |
| 20260507080518 | 70 | 266 | 0.0 | 0.0 | 0.00 | 0.00 | 0.00 | 55 | 1013.1 |
| 20260507080017 | 69 | 242 | 0.0 | 0.0 | 0.00 | 0.00 | 0.00 | 55 | 1013.1 |
| 20260507075517 | 69 | 230 | 0.0 | 0.0 | 0.00 | 0.00 | 0.00 | 56 | 1013.1 |
| 20260507075017 | 69 | 243 | 0.0 | 0.0 | 0.00 | 0.00 | 0.00 | 58 | 1013.1 |
| 20260507074517 | 69 | 235 | 0.0 | 0.0 | 0.00 | 0.00 | 0.00 | 59 | 1013.1 |
| 20260507074016 | 69 | 228 | 0.0 | 0.0 | 0.00 | 0.00 | 0.00 | 60 | 1013.1 |
| 20260507073516 | 68 | 229 | 0.0 | 0.0 | 0.00 | 0.00 | 0.00 | 61 | 1013.1 |
| 20260507073016 | 67 | 179 | 0.0 | 0.0 | 0.00 | 0.00 | 0.00 | 61 | 1013.2 |
| 20260507072516 | 67 | 182 | 0.0 | 0.0 | 0.00 | 0.00 | 0.00 | 62 | 1013.1 |
| 20260507072016 | 67 | 180 | 0.0 | 0.0 | 0.00 | 0.00 | 0.00 | 63 | 1013.1 |
| 20260507071515 | 67 | 75 | 0.0 | 0.0 | 0.00 | 0.00 | 0.00 | 64 | 1013.2 |
| 20260507071015 | 67 | 60 | 0.0 | 0.0 | 0.00 | 0.00 | 0.00 | 66 | 1013.2 |
| 20260507070515 | 67 | 60 | 0.0 | 0.0 | 0.00 | 0.00 | 0.00 | 66 | 1013.2 |
| 20260507070015 | 67 | 60 | 0.0 | 0.0 | 0.00 | 0.00 | 0.00 | 67 | 1013.2 |
| 20260507065514 | 66 | 54 | 0.0 | 0.0 | 0.00 | 0.00 | 0.00 | 69 | 1013.1 |
| 20260507065014 | 67 | 54 | 0.0 | 0.0 | 0.00 | 0.00 | 0.00 | 70 | 1013.1 |
| 20260507064514 | 66 | 54 | 0.0 | 0.0 | 0.00 | 0.00 | 0.00 | 71 | 1013.1 |
| 20260507064014 | 65 | 54 | 0.0 | 0.0 | 0.00 | 0.00 | 0.00 | 72 | 1013.1 |
| 20260507063513 | 65 | 54 | 0.0 | 0.0 | 0.00 | 0.00 | 0.00 | 73 | 1013.2 |
| 20260507063013 | 65 | 54 | 0.0 | 0.0 | 0.00 | 0.00 | 0.00 | 74 | 1013.2 |
| 20260507062513 | 65 | 45 | 0.0 | 0.0 | 0.00 | 0.00 | 0.00 | 75 | 1013.1 |
| 20260507062013 | 64 | 43 | 0.0 | 0.0 | 0.00 | 0.00 | 0.00 | 75 | 1013.1 |
| 20260507061513 | 64 | 42 | 0.0 | 0.0 | 0.00 | 0.00 | 0.00 | 75 | 1013.1 |
| 20260507061012 | 63 | 40 | 0.0 | 0.0 | 0.00 | 0.00 | 0.00 | 75 | 1013.1 |
| 20260507060512 | 63 | 40 | 0.0 | 0.0 | 0.00 | 0.00 | 0.00 | 75 | 1013.1 |
| 20260507060012 | 63 | 354 | 0.0 | 0.0 | 0.00 | 0.00 | 0.00 | 75 | 1013.1 |
| 20260507055512 | 62 | 354 | 0.0 | 0.0 | 0.00 | 0.00 | 0.00 | 74 | 1013.0 |
| 20260507055011 | 62 | 338 | 0.0 | 0.0 | 0.00 | 0.00 | 0.00 | 75 | 1013.0 |
| 20260507054511 | 61 | 156 | 0.0 | 0.0 | 0.00 | 0.00 | 0.00 | 75 | 1012.8 |
| 20260507054011 | 61 | 152 | 0.0 | 0.0 | 0.00 | 0.00 | 0.00 | 75 | 1012.8 |
| 20260507053511 | 61 | 131 | 0.0 | 0.0 | 0.00 | 0.00 | 0.00 | 75 | 1012.7 |
| 20260507053011 | 61 | 129 | 0.0 | 0.0 | 0.00 | 0.00 | 0.00 | 75 | 1012.7 |
| 20260507052510 | 61 | 129 | 0.0 | 0.0 | 0.00 | 0.00 | 0.00 | 75 | 1012.7 |
| 20260507052010 | 61 | 129 | 0.0 | 0.0 | 0.00 | 0.00 | 0.00 | 75 | 1012.6 |
| 20260507051510 | 61 | 129 | 0.0 | 0.0 | 0.00 | 0.00 | 0.00 | 75 | 1012.6 |
| 20260507051010 | 61 | 129 | 0.0 | 0.0 | 0.00 | 0.00 | 0.00 | 75 | 1012.7 |
| 20260507050509 | 61 | 129 | 0.0 | 0.0 | 0.00 | 0.00 | 0.00 | 75 | 1012.6 |
| 20260507050009 | 61 | 129 | 0.0 | 0.0 | 0.00 | 0.00 | 0.00 | 75 | 1012.6 |
| 20260507045509 | 62 | 129 | 0.0 | 0.0 | 0.00 | 0.00 | 0.00 | 75 | 1012.5 |
| 20260507045009 | 62 | 129 | 0.0 | 0.0 | 0.00 | 0.00 | 0.00 | 75 | 1012.4 |
| 20260507044508 | 62 | 129 | 0.0 | 0.0 | 0.00 | 0.00 | 0.00 | 75 | 1012.2 |
| 20260507044008 | 62 | 129 | 0.0 | 0.0 | 0.00 | 0.00 | 0.00 | 75 | 1012.2 |
| 20260507043508 | 62 | 129 | 0.0 | 0.0 | 0.00 | 0.00 | 0.00 | 75 | 1012.1 |
| 20260507043008 | 61 | 129 | 0.0 | 0.0 | 0.00 | 0.00 | 0.00 | 75 | 1012.1 |
| 20260507042507 | 61 | 129 | 0.0 | 0.0 | 0.00 | 0.00 | 0.00 | 75 | 1012.1 |
| 20260507042007 | 61 | 129 | 0.0 | 0.0 | 0.00 | 0.00 | 0.00 | 75 | 1012.2 |
| 20260507041507 | 61 | 129 | 0.0 | 0.0 | 0.00 | 0.00 | 0.00 | 75 | 1012.1 |
| 20260507041007 | 61 | 129 | 0.0 | 0.0 | 0.00 | 0.00 | 0.00 | 75 | 1012.1 |
| 20260507040507 | 61 | 124 | 0.0 | 0.0 | 0.00 | 0.00 | 0.00 | 75 | 1012.0 |
| 20260507040006 | 61 | 105 | 0.0 | 0.0 | 0.00 | 0.00 | 0.00 | 75 | 1011.9 |
| 20260507035506 | 61 | 102 | 0.0 | 0.0 | 0.00 | 0.00 | 0.00 | 75 | 1011.9 |
| 20260507035006 | 61 | 101 | 0.0 | 0.0 | 0.00 | 0.00 | 0.00 | 75 | 1011.8 |
| 20260507034506 | 61 | 116 | 0.0 | 0.0 | 0.00 | 0.00 | 0.00 | 75 | 1011.9 |
| 20260507034005 | 61 | 115 | 0.0 | 0.0 | 0.00 | 0.00 | 0.00 | 75 | 1011.9 |
| 20260507033505 | 61 | 115 | 0.0 | 0.0 | 0.00 | 0.00 | 0.00 | 76 | 1011.9 |
| 20260507033005 | 61 | 129 | 0.0 | 0.0 | 0.00 | 0.00 | 0.00 | 76 | 1011.8 |
| 20260507032505 | 61 | 129 | 0.0 | 0.0 | 0.00 | 0.00 | 0.00 | 76 | 1011.8 |
| 20260507032004 | 61 | 129 | 0.0 | 0.0 | 0.00 | 0.00 | 0.00 | 76 | 1011.8 |
| 20260507031736 | 61 | 129 | 0.0 | 0.0 | 0.00 | 0.00 | 0.00 | 76 | 1011.8 |
| 20260507031504 | 61 | 129 | 0.0 | 0.0 | 0.00 | 0.00 | 0.00 | 76 | 1011.8 |
| 20260507031004 | 61 | 130 | 0.0 | 0.0 | 0.00 | 0.00 | 0.00 | 76 | 1011.9 |
| 20260507030504 | 61 | 330 | 0.0 | 0.0 | 0.00 | 0.00 | 0.00 | 76 | 1011.8 |
| 20260507030004 | 62 | 330 | 0.0 | 0.0 | 0.00 | 0.00 | 0.00 | 75 | 1011.8 |
| 20260507025503 | 62 | 330 | 0.0 | 0.0 | 0.00 | 0.00 | 0.00 | 75 | 1011.8 |
| 20260507025003 | 62 | 330 | 0.0 | 0.0 | 0.00 | 0.00 | 0.00 | 75 | 1011.8 |
| 20260507024734 | 61 | 330 | 0.0 | 0.0 | 0.00 | 0.00 | 0.00 | 75 | 1011.8 |
| 20260507024503 | 61 | 330 | 0.0 | 0.0 | 0.00 | 0.00 | 0.00 | 75 | 1011.8 |
| 20260507024003 | 62 | 330 | 0.0 | 0.0 | 0.00 | 0.00 | 0.00 | 75 | 1011.8 |
| 20260507023502 | 62 | 330 | 0.0 | 0.0 | 0.00 | 0.00 | 0.00 | 75 | 1011.6 |
| 20260507023002 | 62 | 330 | 0.0 | 0.0 | 0.00 | 0.00 | 0.00 | 75 | 1011.6 |
| 20260507022502 | 62 | 330 | 0.0 | 0.0 | 0.00 | 0.00 | 0.00 | 75 | 1011.7 |
| 20260507022002 | 62 | 330 | 0.0 | 0.0 | 0.00 | 0.00 | 0.00 | 75 | 1011.8 |
| 20260507021501 | 62 | 330 | 0.0 | 0.0 | 0.00 | 0.00 | 0.00 | 75 | 1011.7 |
| 20260507021218 | 62 | 330 | 0.0 | 0.0 | 0.00 | 0.00 | 0.00 | 75 | 1011.8 |
| 20260507021001 | 62 | 330 | 0.0 | 0.0 | 0.00 | 0.00 | 0.00 | 75 | 1011.8 |
| 20260507020501 | 62 | 330 | 0.0 | 0.0 | 0.00 | 0.00 | 0.00 | 75 | 1011.8 |
| 20260507020001 | 62 | 330 | 0.0 | 0.0 | 0.00 | 0.00 | 0.00 | 75 | 1011.8 |
| 20260507015501 | 62 | 330 | 0.0 | 0.0 | 0.00 | 0.00 | 0.00 | 75 | 1011.7 |
| 20260507015000 | 62 | 330 | 0.0 | 0.0 | 0.00 | 0.00 | 0.00 | 75 | 1011.7 |
| 20260507014501 | 62 | 330 | 0.0 | 0.0 | 0.00 | 0.00 | 0.00 | 75 | 1011.7 |
| 20260507014000 | 63 | 330 | 0.0 | 0.0 | 0.00 | 0.00 | 0.00 | 75 | 1011.7 |
| 20260507013500 | 63 | 330 | 0.0 | 0.0 | 0.00 | 0.00 | 0.00 | 75 | 1011.7 |
| 20260507012959 | 63 | 330 | 0.0 | 0.0 | 0.00 | 0.00 | 0.00 | 75 | 1011.7 |
| 20260507012459 | 63 | 329 | 0.0 | 0.0 | 0.00 | 0.00 | 0.00 | 75 | 1011.7 |
| 20260507011959 | 63 | 329 | 0.0 | 0.0 | 0.00 | 0.00 | 0.00 | 75 | 1011.7 |
| 20260507011459 | 63 | 329 | 0.0 | 0.0 | 0.00 | 0.00 | 0.00 | 75 | 1011.7 |
| 20260507010959 | 63 | 329 | 0.0 | 0.0 | 0.00 | 0.00 | 0.00 | 74 | 1011.7 |
| 20260507010458 | 63 | 329 | 0.0 | 0.0 | 0.00 | 0.00 | 0.00 | 74 | 1011.7 |
| 20260507005958 | 64 | 328 | 0.0 | 0.0 | 0.00 | 0.00 | 0.00 | 74 | 1011.8 |
| 20260507005458 | 64 | 325 | 0.0 | 0.0 | 0.00 | 0.00 | 0.00 | 74 | 1011.7 |
| 20260507004958 | 64 | 33 | 0.0 | 0.0 | 0.00 | 0.00 | 0.00 | 74 | 1011.8 |
| 20260507004457 | 64 | 33 | 0.0 | 0.0 | 0.00 | 0.00 | 0.00 | 73 | 1011.8 |
| 20260507003957 | 64 | 33 | 0.0 | 0.0 | 0.00 | 0.00 | 0.00 | 73 | 1011.8 |
| 20260507003457 | 64 | 33 | 0.0 | 0.0 | 0.00 | 0.00 | 0.00 | 73 | 1011.7 |
| 20260507002957 | 64 | 280 | 0.0 | 0.0 | 0.00 | 0.00 | 0.00 | 72 | 1011.8 |
| 20260507002456 | 64 | 281 | 0.0 | 0.0 | 0.00 | 0.00 | 0.00 | 71 | 1011.8 |
| 20260507001956 | 64 | 280 | 0.0 | 0.0 | 0.00 | 0.00 | 0.00 | 71 | 1011.8 |
| 20260507001456 | 65 | 280 | 0.0 | 0.0 | 0.00 | 0.00 | 0.00 | 71 | 1011.8 |
| 20260507000956 | 65 | 280 | 0.0 | 0.0 | 0.00 | 0.00 | 0.00 | 70 | 1011.9 |
| 20260507000455 | 65 | 281 | 0.0 | 0.0 | 0.00 | 0.00 | 0.00 | 70 | 1011.9 |
| 20260506235955 | 66 | 281 | 0.0 | 0.0 | 0.00 | 0.00 | 0.00 | 69 | 1011.9 |
| 20260506235455 | 66 | 280 | 0.0 | 0.0 | 0.00 | 0.00 | 0.00 | 68 | 1011.9 |
| 20260506234955 | 66 | 237 | 0.0 | 0.0 | 0.00 | 0.00 | 0.00 | 68 | 1011.8 |